(90377) Sedna = 2003 VB12

Discovered at Palomar on 2003-11-14 by M. E. Brown, C. A. Trujillo, and D. L. Rabinowitz.
(90377) Sedna = 2003 VB12

Sedna is the Inuit goddess of the sea and the mother of all sea creatures. She rewards the people of the land with food from the sea. Without her blessing, hunts fail and the people starve. She is thus one of the most important figures in Inuit legend. [Ref: Minor Planet Circ. 52771]

Orbit

Orbit type: Distant object

Note: WebGL enabled browser required.

epoch2024-03-31.0
epoch JD2460400.5
perihelion date2075-05-17.96798
perihelion JD2479075.46798
argument of perihelion (°)310.84607
ascending node (°)144.34667
inclination (°)11.92870
eccentricity0.8607738
perihelion distance (AU)76.3376118
Tisserand w.r.t. Jupiter10.2
ΔV w.r.t. Earth (km/sec)10.0
semimajor axis (AU)548.2991403
mean anomaly (°)358.56637
mean daily motion (°/day)0.00007680
aphelion distance (AU)1020.261
period (years)12839
P-vector [x]-0.10002795
P-vector [y]0.96373394
P-vector [z]0.24740917
Q-vector [x]-0.98766366
Q-vector [y]-0.12628195
Q-vector [z]0.09259249
absolute magnitude1.5
phase slope0.15
uncertainty5
referenceMPEC 2024-F28
observations used490
oppositions24
arc length (days)12228
first opposition used1990
last opposition used2024
residual rms (arc-secs)0.55
perturbers coarse indicatorM-v
perturbers precise indicator003Ek
first observation date used1990-09-25.0
last observation date used2024-03-18.0
computer nameMPCLINUX
JD of orbit computation2456966.729097
perihelion JD uncertainty (days)2.2239E+00
argument of perihelion uncertainty (°)6.8200E-03
ascending node uncertainty (°)1.6798E-03
inclination uncertainty (°)3.4369E-05
eccentricity uncertainty 1.6629E-04
perihelion distance uncertainty (AU)4.5833E-03
Minimum Orbit Intersection Distances (in AU)
for orbit epoch: 2460400.5, reference: E2024-F28
Mercury76.0366
Venus75.6295
Earth75.3671
Mars74.7752
Jupiter71.2431
Saturn67.3978
Uranus57.6933
Neptune46.749

Observations

499 total observations over interval: 1990 09 25.44063 – 2024 03 18.284962
These data are available for download (format description).

Date (UT) J2000 RA J2000 Dec Magn Location Ref
1990 09 25.44063 02 50 51.72 +04 07 48.0 20.5 R 261 – Palomar Mountain-DSS MPS 101204
1991 09 11.46806 02 53 03.54 +04 18 01.6 20.6 R 261 – Palomar Mountain-DSS MPS 101204
2001 09 26.48667 03 12 35.20 +05 31 31.2   644 – Palomar Mountain/NEAT MPS 101204
2001 10 24.52713 03 11 44.54 +05 25 59.1   644 – Palomar Mountain/NEAT MPS 101204
2002 10 09.43293 03 14 19.47 +05 36 50.3   644 – Palomar Mountain/NEAT MPS 101204
2002 10 29.43127 03 13 39.41 +05 32 59.3   644 – Palomar Mountain/NEAT MPS 101204
2002 12 13.23936 03 12 02.20 +05 27 21.1 21 R 644 – Palomar Mountain/NEAT MPS 112196
2003 08 30.41504 03 17 10.06 +05 52 13.3   675 – Palomar Mountain MPS 101204
2003 09 29.38282 03 16 41.92 +05 46 45.3   675 – Palomar Mountain MPS 101204
2003 11 14.27288 03 15 10.09 +05 38 16.5 20.8 R 675 – Palomar Mountain MPS 101204
2003 11 14.33594 03 15 09.97 +05 38 15.4 20.5 R 675 – Palomar Mountain MPS 101204
2003 11 14.40149 03 15 09.83 +05 38 14.9 20.7 R 675 – Palomar Mountain MPS 101204
2003 11 20.27501 03 14 56.51 +05 37 25.3 21.4   926 – Tenagra II Observatory, Nogales MPS 101204
2003 11 20.33089 03 14 56.30 +05 37 25.4 22.2 R 926 – Tenagra II Observatory, Nogales MPS 101204
2003 11 25.28100 03 14 45.30 +05 36 47.5   568 – Maunakea MPS 101204
2003 11 27.02955 03 14 41.44 +05 36 35.5   807 – Cerro Tololo Observatory, La Serena MPS 101204
2003 11 27.13343 03 14 41.21 +05 36 34.8   807 – Cerro Tololo Observatory, La Serena MPS 101204
2003 11 28.03145 03 14 39.23 +05 36 28.9   807 – Cerro Tololo Observatory, La Serena MPS 101204
2003 11 28.11670 03 14 39.05 +05 36 28.5   807 – Cerro Tololo Observatory, La Serena MPS 101204
2003 12 04.05591 03 14 26.25 +05 35 53.6 20.5 R 807 – Cerro Tololo Observatory, La Serena MPS 101204
2003 12 04.09737 03 14 26.16 +05 35 53.5 20.7 R 807 – Cerro Tololo Observatory, La Serena MPS 101204
2003 12 14.06076 03 14 06.11 +05 35 11.1   807 – Cerro Tololo Observatory, La Serena MPS 101204
2003 12 14.14978 03 14 05.96 +05 35 10.6   807 – Cerro Tololo Observatory, La Serena MPS 101204
2003 12 31.12274 03 13 37.64 +05 34 50.7 20.7 R 807 – Cerro Tololo Observatory, La Serena MPS 101204
2003 12 31.15813 03 13 37.59 +05 34 50.5 20.9 R 807 – Cerro Tololo Observatory, La Serena MPS 101204
2003 12 31.19148 03 13 37.53 +05 34 50.8 20.6 R 807 – Cerro Tololo Observatory, La Serena MPS 101204
2004 03 13.76672 03 13 46.98 +05 45 08.3   246 – Klet Observatory-KLENOT MPS 101204
2004 03 14.76461 03 13 48.60 +05 45 21.0 20.7 R 246 – Klet Observatory-KLENOT MPS 101204
2004 03 14.77174 03 13 48.64 +05 45 22.7   246 – Klet Observatory-KLENOT MPS 101204
2004 03 14.77351 03 13 48.68 +05 45 22.0   246 – Klet Observatory-KLENOT MPS 101204
2004 03 14.77448 03 13 48.70 +05 45 21.2   246 – Klet Observatory-KLENOT MPS 101204
2004 03 15.11461 03 13 49.23 +05 45 26.5   333 – Desert Eagle Observatory MPS 101204
2004 03 17.11649 03 13 52.75 +05 45 54.1 20.9 R 926 – Tenagra II Observatory, Nogales MPS 101204
2004 03 17.80351 03 13 54.13 +05 46 02.5 20.8 R 204 – Schiaparelli Observatory MPS 101204
2004 03 18.11597 03 13 54.57 +05 46 07.5 20.8 R 926 – Tenagra II Observatory, Nogales MPS 101204
2004 03 19.11898 03 13 56.39 +05 46 21.4   926 – Tenagra II Observatory, Nogales MPS 101204
2004 09 06.49288 03 19 12.05 +05 58 47.0 20.7 R 695 – Kitt Peak MPS 114028
2004 09 07.49615 03 19 11.39 +05 58 36.6 20.7 R 695 – Kitt Peak MPS 114028
2004 09 18.08079 03 19 01.87 +05 56 39.8   246 – Klet Observatory-KLENOT MPS 115152
2004 09 18.08219 03 19 01.85 +05 56 41.0   246 – Klet Observatory-KLENOT MPS 115152
2004 09 18.10552 03 19 01.87 +05 56 40.1 20.3 R 204 – Schiaparelli Observatory MPS 115152
2004 09 18.98934 03 19 00.85 +05 56 29.4   246 – Klet Observatory-KLENOT MPS 115152
2004 09 18.99145 03 19 00.83 +05 56 29.4   246 – Klet Observatory-KLENOT MPS 115152
2004 09 18.99353 03 19 00.81 +05 56 29.7   246 – Klet Observatory-KLENOT MPS 115152
2004 09 19.14367 03 19 00.98 +05 56 27.9   204 – Schiaparelli Observatory MPS 115152
2004 10 11.00228 03 18 27.86 +05 52 10.4 20.7 R 213 – Observatorio Montcabre MPS 117408
2004 10 11.02993 03 18 27.78 +05 52 10.0 20.7 R 213 – Observatorio Montcabre MPS 117408
2004 10 15.96099 03 18 18.51 +05 51 13.4 20.8 R 213 – Observatorio Montcabre MPS 118230
2004 10 16.00865 03 18 18.38 +05 51 14.1 20.8 R 213 – Observatorio Montcabre MPS 118230
2004 11 16.92013 03 17 08.686 +05 45 39.42 20.6 R 176 – Observatorio Astronomico de Consell MPS 120257
2004 11 17.93921 03 17 06.320 +05 45 30.87 20.6 R 176 – Observatorio Astronomico de Consell MPS 120257
2004 12 10.22765 03 16 18.01 +05 43 13.7 21.0 R G98 – Calvin-Rehoboth Observatory, Rehoboth MPS 123425
2004 12 11.24828 03 16 15.96 +05 43 09.9 21.0 R G98 – Calvin-Rehoboth Observatory, Rehoboth MPS 123425
2004 12 12.25523 03 16 13.99 +05 43 06.6 21.0 R G98 – Calvin-Rehoboth Observatory, Rehoboth MPS 123425
2004 12 13.19287 03 16 12.17 +05 43 03.5 20.8 R G98 – Calvin-Rehoboth Observatory, Rehoboth MPS 123425
2005 01 14.80565 03 15 25.44 +05 43 21.5 20.4 V 240 – Herrenberg Sternwarte MPS 196836
2005 01 29.11722 03 15 17.80 +05 44 46.3   701 – Junk Bond Observatory, Sierra Vista MPS 127661
2005 01 30.14696 03 15 17.58 +05 44 54.6   701 – Junk Bond Observatory, Sierra Vista MPS 127661
2005 01 31.12318 03 15 17.42 +05 45 02.8   701 – Junk Bond Observatory, Sierra Vista MPS 127661
2005 03 04.14167 03 15 36.22 +05 50 43.3 21.33 V G95 – Hereford Arizona Observatory, Hereford MPS 127661
2005 09 13.08772 03 21 14.06 +06 05 32.3 20.8 R 204 – Schiaparelli Observatory MPS 142409
2005 10 11.457879 03 20 34.63 +06 00 01.6   645 – Apache Point-Sloan Digital Sky Survey MPS 643537
2005 10 11.458709 03 20 34.63 +06 00 01.6   645 – Apache Point-Sloan Digital Sky Survey MPS 643537
2005 10 11.461196 03 20 34.62 +06 00 01.5   645 – Apache Point-Sloan Digital Sky Survey MPS 643537
2005 10 12.450887 03 20 32.81 +05 59 49.6 20.8 V 645 – Apache Point-Sloan Digital Sky Survey MPS 543273
2005 10 12.451716 03 20 32.80 +05 59 49.6 22.0 V 645 – Apache Point-Sloan Digital Sky Survey MPS 543273
2005 10 12.452037 03 20 32.80 +05 59 49.6 20.5 V 645 – Apache Point-Sloan Digital Sky Survey MPS 543273
2005 11 08.00740 03 19 36.80 +05 54 56.7 20.8 R 213 – Observatorio Montcabre MPS 150438
2005 11 08.02519 03 19 36.77 +05 54 57.1 20.8 R 213 – Observatorio Montcabre MPS 150438
2006 01 03.88475 03 17 43.41 +05 50 39.1 20.0 R 235 – CAST Observatory, Talmassons MPS 158602
2007 10 12.40501 03 24 51.141 +06 15 50.25 21.3 R 675 – Palomar Mountain MPS 302850
2007 10 12.44643 03 24 51.064 +06 15 50.17 21.0 R 675 – Palomar Mountain MPS 302850
2007 10 14.41002 03 24 47.413 +06 15 26.40 21.0 R 675 – Palomar Mountain MPS 302850
2007 10 14.45649 03 24 47.314 +06 15 26.89 21.0 R 675 – Palomar Mountain MPS 302850
2007 11 08.22116 03 23 54.80 +06 10 55.6 20.9 R H82 – CBA-NOVAC Observatory, Front Royal MPS 227881
2007 11 08.25394 03 23 54.66 +06 10 55.3 21.1 R H82 – CBA-NOVAC Observatory, Front Royal MPS 227881
2007 11 08.28672 03 23 54.57 +06 10 56.0 20.9 R H82 – CBA-NOVAC Observatory, Front Royal MPS 227881
2008 10 23.21467 03 26 38.79 +06 21 38.0 21.0 R H82 – CBA-NOVAC Observatory, Front Royal MPS 261055
2008 10 23.23622 03 26 38.71 +06 21 37.2 20.8 R H82 – CBA-NOVAC Observatory, Front Royal MPS 261055
2008 10 23.25777 03 26 38.55 +06 21 38.2 20.6 R H82 – CBA-NOVAC Observatory, Front Royal MPS 261055
2008 10 23.32243 03 26 38.48 +06 21 36.0 20.6 R H82 – CBA-NOVAC Observatory, Front Royal MPS 261055
2008 10 23.34398 03 26 38.44 +06 21 36.3 20.7 R H82 – CBA-NOVAC Observatory, Front Royal MPS 261055
2008 11 07.32602 03 26 05.38 +06 18 57.2 20.1 C H10 – Tzec Maun Observatory, Mayhill MPS 275124
2009 11 13.26988 03 28 03.66 +06 26 08.6 20.6 R 735 – George Observatory, Needville MPS 304271
2009 11 13.31411 03 28 03.57 +06 26 07.7 20.6 R 735 – George Observatory, Needville MPS 304271
